Hereford, TX

1:49 AM CDT on April 27, 2018 (GMT -0500)
Hereford Municipal

Weather History for KHRX - October, 2013

Change the Weather History Date:

Thursday, October 3, 2013

  Actual Average (KCVN) Record (KCVN)
Temperature  
Mean Temperature 68 °F -  
Max Temperature 90 °F 79 °F 93 °F (1967)
Min Temperature 47 °F 49 °F 34 °F (1961)
Cooling Degree Days 4    
Growing Degree Days 18 (Base 50)    
Moisture  
Dew Point 32 °F    
Average Humidity 28    
Maximum Humidity 57    
Minimum Humidity 10    
Precipitation  
Precipitation 0.00 in - - ()
Sea Level Pressure  
Sea Level Pressure 29.85 in    
Wind  
Wind Speed 11 mph (SW)    
Max Wind Speed 30 mph    
Max Gust Speed 46 mph    
Visibility 10 miles    
Events      
Averages and records for this station are not official NWS values.
T = Trace of Precipitation, MM = Missing Value Source: NWS Daily Summary

Daily Weather History Graph

Daily Weather History Graph

Search for Another Location

Airport or City:

Astronomy

Oct. 03, 2013 Rise Set
Actual Time 7:45 AM CDT 7:30 PM CDT
Civil Twilight 7:20 AM CDT 7:55 PM CDT
Nautical Twilight 6:51 AM CDT 8:24 PM CDT
Astronomical Twilight 6:21 AM CDT 8:53 PM CDT
Moon 6:23 AM CDT (10/3) 6:39 PM CDT (10/3)
Length of Visible Light 12h 34m
Length of Day
11h 44m
Waning Crescent, 2% of the Moon is Illuminated
Oct 3
Waning Crescent
Oct 4
New
Oct 11
First Quarter
Oct 18
Full
Oct 26
Last Quarter

Hourly Weather History & Observations

Time (CDT) Temp. Dew Point Humidity Pressure Visibility Wind Dir Wind Speed Gust Speed Precip Events Conditions
12:15 AM 53.6 °F 31.1 °F 42% 29.90 in 10.0 mi West 8.1 mph - N/A   Clear
12:35 AM 52.0 °F 31.6 °F 46% 29.90 in 10.0 mi West 6.9 mph - N/A   Clear
12:55 AM 52.3 °F 32.0 °F 46% 29.90 in 10.0 mi SSE 3.5 mph - N/A   Clear
1:15 AM 52.2 °F 31.6 °F 46% 29.90 in 10.0 mi ESE 6.9 mph - N/A   Clear
1:35 AM 52.3 °F 31.5 °F 45% 29.89 in 10.0 mi SSE 6.9 mph - N/A   Clear
1:55 AM 56.1 °F 29.1 °F 36% 29.90 in 10.0 mi South 8.1 mph - N/A   Clear
2:15 AM 56.3 °F 29.3 °F 36% 29.90 in 10.0 mi South 6.9 mph - N/A   Clear
2:35 AM 55.4 °F 29.1 °F 37% 29.90 in 10.0 mi South 9.2 mph - N/A   Clear
2:55 AM 57.0 °F 28.8 °F 34% 29.90 in 10.0 mi South 9.2 mph - N/A   Clear
3:15 AM 57.6 °F 29.1 °F 34% 29.89 in 10.0 mi South 8.1 mph - N/A   Clear
3:35 AM 59.2 °F 29.7 °F 33% 29.89 in 10.0 mi SSW 8.1 mph - N/A   Clear
3:55 AM 56.7 °F 30.6 °F 37% 29.88 in 10.0 mi SSW 5.8 mph - N/A   Clear
4:15 AM 54.7 °F 31.1 °F 41% 29.88 in 10.0 mi SSW 6.9 mph - N/A   Clear
4:35 AM 55.6 °F 31.1 °F 39% 29.88 in 10.0 mi SSW 9.2 mph - N/A   Clear
4:55 AM 54.9 °F 31.1 °F 40% 29.88 in 10.0 mi SSW 9.2 mph - N/A   Clear
5:15 AM 54.0 °F 31.3 °F 42% 29.88 in 10.0 mi SSW 10.4 mph - N/A   Clear
5:35 AM 55.8 °F 31.6 °F 40% 29.88 in 10.0 mi SSW 11.5 mph - N/A   Clear
5:55 AM 56.3 °F 31.6 °F 39% 29.87 in 10.0 mi SSW 10.4 mph - N/A   Clear
6:15 AM 55.4 °F 32.0 °F 41% 29.88 in 10.0 mi SSW 11.5 mph - N/A   Clear
6:35 AM 54.5 °F 32.4 °F 43% 29.88 in 10.0 mi SSW 8.1 mph - N/A   Clear
6:55 AM 53.8 °F 32.5 °F 45% 29.88 in 10.0 mi SSW 6.9 mph - N/A   Clear
7:15 AM 53.1 °F 32.5 °F 46% 29.88 in 10.0 mi SW 5.8 mph - N/A   Clear
7:35 AM 50.7 °F 32.5 °F 50% 29.88 in 10.0 mi West 4.6 mph - N/A   Clear
7:55 AM 47.5 °F 32.5 °F 56% 29.88 in 10.0 mi NW 3.5 mph - N/A   Clear
8:15 AM 47.1 °F 32.5 °F 57% 29.89 in 10.0 mi Calm Calm - N/A   Clear
8:35 AM 51.1 °F 33.6 °F 51% 29.90 in 7.0 mi SW 5.8 mph - N/A   Clear
8:55 AM 57.7 °F 34.3 °F 41% 29.91 in 10.0 mi WSW 8.1 mph - N/A   Clear
9:15 AM 61.0 °F 33.8 °F 36% 29.91 in 10.0 mi SW 5.8 mph - N/A   Clear
9:35 AM 63.9 °F 34.0 °F 33% 29.91 in 10.0 mi SW 8.1 mph - N/A   Clear
9:55 AM 67.8 °F 33.6 °F 28% 29.91 in 10.0 mi SW 9.2 mph - N/A   Clear
10:15 AM 72.3 °F 33.3 °F 24% 29.91 in 10.0 mi SW 10.4 mph - N/A   Clear
10:35 AM 76.3 °F 32.7 °F 20% 29.91 in 10.0 mi SW 10.4 mph - N/A   Clear
10:55 AM 79.2 °F 31.8 °F 18% 29.90 in 10.0 mi SW 13.8 mph - N/A   Clear
11:15 AM 80.8 °F 31.5 °F 17% 29.90 in 10.0 mi SW 13.8 mph 21.9 mph N/A   Clear
11:35 AM 81.5 °F 32.0 °F 17% 29.90 in 10.0 mi SW 15.0 mph 23.0 mph N/A   Clear
11:55 AM 83.3 °F 30.6 °F 15% 29.89 in 10.0 mi SSW 13.8 mph - N/A   Clear
12:15 PM 85.1 °F 30.6 °F 14% 29.89 in 10.0 mi SSW 17.3 mph 21.9 mph N/A   Clear
12:35 PM 86.2 °F 30.4 °F 13% 29.88 in 10.0 mi SSW 18.4 mph 25.3 mph N/A   Clear
12:55 PM 86.5 °F 30.0 °F 13% 29.87 in 10.0 mi SW 21.9 mph 28.8 mph N/A   Clear
1:15 PM 87.3 °F 27.7 °F 12% 29.87 in 10.0 mi SSW 21.9 mph 28.8 mph N/A   Clear
1:35 PM 88.3 °F 26.2 °F 11% 29.86 in 10.0 mi SW 24.2 mph 31.1 mph N/A   Clear
1:55 PM 88.3 °F 25.7 °F 10% 29.84 in 10.0 mi WSW 26.5 mph 33.4 mph N/A   Clear
2:15 PM 89.6 °F 25.0 °F 10% 29.84 in 7.0 mi WSW 26.5 mph 38.0 mph N/A   Clear
2:35 PM 90.1 °F 27.5 °F 11% 29.83 in 7.0 mi WSW 29.9 mph 46.0 mph N/A   Clear
2:55 PM 89.8 °F 29.1 °F 11% 29.82 in 10.0 mi SSW 27.6 mph 35.7 mph N/A   Clear
3:15 PM 89.4 °F 31.3 °F 13% 29.81 in 10.0 mi SW 27.6 mph 35.7 mph N/A   Clear
3:35 PM 89.1 °F 32.0 °F 13% 29.81 in 10.0 mi SW 21.9 mph 32.2 mph N/A   Clear
3:55 PM 88.7 °F 32.9 °F 14% 29.80 in 10.0 mi SSW 25.3 mph 39.1 mph N/A   Clear
4:15 PM 88.7 °F 33.1 °F 14% 29.80 in 10.0 mi SW 25.3 mph 41.4 mph N/A   Clear
4:35 PM 88.9 °F 33.4 °F 14% 29.80 in 10.0 mi SW 28.8 mph 41.4 mph N/A   Clear
4:55 PM 88.7 °F 32.5 °F 13% 29.80 in 10.0 mi SW 29.9 mph 36.8 mph N/A   Clear
5:15 PM 88.7 °F 32.0 °F 13% 29.79 in 10.0 mi SW 28.8 mph 40.3 mph N/A   Clear
5:35 PM 88.2 °F 31.8 °F 13% 29.78 in 10.0 mi WSW 26.5 mph 35.7 mph N/A   Clear
5:55 PM 87.8 °F 31.6 °F 13% 29.78 in 10.0 mi WSW 24.2 mph 31.1 mph N/A   Clear
6:15 PM 87.1 °F 31.3 °F 14% 29.78 in 10.0 mi SW 20.7 mph 28.8 mph N/A   Clear
6:35 PM 85.5 °F 31.1 °F 14% 29.77 in 10.0 mi WSW 16.1 mph 25.3 mph N/A   Clear
6:55 PM 85.1 °F 31.1 °F 14% 29.77 in 10.0 mi SW 15.0 mph 21.9 mph N/A   Clear
7:15 PM 83.1 °F 32.4 °F 16% 29.77 in 10.0 mi SW 10.4 mph - N/A   Clear
7:35 PM 80.4 °F 34.0 °F 19% 29.78 in 10.0 mi SW 9.2 mph - N/A   Clear
7:55 PM 78.3 °F 34.5 °F 21% 29.78 in 10.0 mi SSW 6.9 mph - N/A   Clear
8:15 PM 77.9 °F 35.1 °F 21% 29.79 in 7.0 mi SSW 8.1 mph - N/A   Clear
8:35 PM 77.0 °F 36.0 °F 23% 29.79 in 7.0 mi SSW 9.2 mph - N/A   Clear
8:55 PM 76.1 °F 36.5 °F 24% 29.79 in 10.0 mi SSW 9.2 mph - N/A   Clear
9:15 PM 69.6 °F 37.4 °F 31% 29.79 in 4.0 mi SSW 6.9 mph - N/A   Haze
9:35 PM 73.9 °F 37.4 °F 27% 29.80 in 10.0 mi SSW 13.8 mph - N/A   Clear
9:55 PM 73.9 °F 37.6 °F 27% 29.80 in 10.0 mi SSW 10.4 mph - N/A   Clear
10:15 PM 74.3 °F 37.6 °F 26% 29.80 in 10.0 mi SW 12.7 mph - N/A   Clear
10:35 PM 73.9 °F 38.1 °F 27% 29.81 in 10.0 mi SW 19.6 mph 23.0 mph N/A   Clear
11:35 PM 72.0 °F 36.7 °F 28% 29.81 in 10.0 mi SW 18.4 mph 21.9 mph N/A   Clear
11:55 PM 70.7 °F 35.8 °F 28% 29.81 in 10.0 mi SW 16.1 mph 20.7 mph N/A   Clear